Weather History for KEPH - February, 2013

Change the Weather History Date:

Sunday, February 10, 2013

  Actual Average Record
Temperature  
Mean Temperature 34 °F 33 °F  
Max Temperature 46 °F 41 °F 61 °F (1990)
Min Temperature 22 °F 25 °F 0 °F (1985)
Degree Days  
Heating Degree Days 31 32  
Month to date heating degree days 309 328  
Since 1 July heating degree days 3745 4036  
Cooling Degree Days 0 0  
Month to date cooling degree days 0 0  
Year to date cooling degree days 0 0  
Moisture  
Dew Point 25 °F    
Average Humidity 67    
Maximum Humidity 88    
Minimum Humidity 45    
Precipitation  
Precipitation 0.00 in 0.02 in 0.23 in (1961)
Month to date precipitation T 0.25  
Year to date precipitation 0.19 1.16  
Sea Level Pressure  
Sea Level Pressure 30.26 in    
Wind  
Wind Speed 4 mph (NE)    
Max Wind Speed 8 mph    
Max Gust Speed 9 mph    
Visibility 10 miles    
Events      
T = Trace of Precipitation, MM = Missing Value Source: NWS Daily Summary

Daily Weather History Graph

Daily Weather History Graph

Search for Another Location

Airport or City:

Trip Planner

Search our weather history database for the weather conditions in past years. The results will help you decide how hot, cold, wet, or windy it might be!

Date:

Astronomy

Feb. 10, 2013 Rise Set
Actual Time 7:10 AM PST 5:14 PM PST
Civil Twilight 6:38 AM PST 5:46 PM PST
Nautical Twilight 6:02 AM PST 6:22 PM PST
Astronomical Twilight 5:27 AM PST 6:58 PM PST
Moon 6:57 AM PST (2/10) 6:18 PM PST (2/10)
Length of Visible Light 11h 08m
Length of Day
10h 04m
New Moon, 0% of the Moon is Illuminated
Feb 10
New Moon
Feb 17
First Quarter
Feb 25
Full
Mar 4
Last Quarter
Mar 11
New

Hourly Weather History & Observations

Time (PST) Temp. Windchill Dew Point Humidity Pressure Visibility Wind Dir Wind Speed Gust Speed Precip Events Conditions
12:53 AM 35.1 °F 29.3 °F 25.0 °F 67% 30.23 in 10.0 mi ENE 6.9 mph - N/A   Clear
1:53 AM 35.1 °F 32.2 °F 25.0 °F 67% 30.24 in 10.0 mi ENE 3.5 mph - N/A   Clear
2:53 AM 33.1 °F 26.9 °F 24.1 °F 70% 30.24 in 10.0 mi NE 6.9 mph - N/A   Clear
3:53 AM 27.0 °F 23.0 °F 23.0 °F 85% 30.25 in 10.0 mi NE 3.5 mph - N/A   Clear
4:53 AM 27.0 °F 23.0 °F 23.0 °F 85% 30.27 in 10.0 mi North 3.5 mph - N/A   Clear
5:53 AM 25.0 °F - 21.0 °F 85% 30.27 in 10.0 mi Calm Calm - N/A   Clear
6:53 AM 24.1 °F - 21.0 °F 88% 30.28 in 10.0 mi Calm Calm - N/A   Clear
7:53 AM 26.1 °F 20.5 °F 23.0 °F 88% 30.29 in 10.0 mi NE 4.6 mph - N/A   Clear
8:53 AM 32.0 °F 28.7 °F 26.1 °F 79% 30.30 in 10.0 mi NNE 3.5 mph - N/A   Clear
9:53 AM 35.1 °F 31.0 °F 27.0 °F 72% 30.30 in 10.0 mi NE 4.6 mph - N/A   Clear
10:53 AM 39.0 °F 34.8 °F 28.0 °F 65% 30.30 in 10.0 mi ENE 5.8 mph - N/A   Clear
11:27 AM 41.0 °F 39.0 °F 26.6 °F 57% 30.26 in 10.0 mi Variable 3.5 mph 29.9 mph N/A   Clear
11:53 AM 42.1 °F - 26.1 °F 53% 30.28 in 10.0 mi Calm Calm - N/A   Clear
12:53 PM 44.1 °F - 27.0 °F 51% 30.26 in 10.0 mi Calm Calm - N/A   Clear
1:53 PM 45.0 °F 43.5 °F 28.0 °F 52% 30.25 in 10.0 mi ESE 3.5 mph - N/A   Clear
2:53 PM 46.0 °F 44.8 °F 28.0 °F 50% 30.24 in 10.0 mi East 3.5 mph - N/A   Clear
3:53 PM 46.0 °F 44.8 °F 27.0 °F 47% 30.23 in 10.0 mi SE 3.5 mph - N/A   Clear
4:53 PM 42.1 °F 39.2 °F 25.0 °F 51% 30.24 in 10.0 mi South 4.6 mph - N/A   Clear
5:53 PM 37.9 °F - 26.1 °F 62% 30.25 in 10.0 mi Calm Calm - N/A   Clear
6:53 PM 32.0 °F 24.8 °F 27.0 °F 82% 30.26 in 10.0 mi North 8.1 mph - N/A   Clear
7:53 PM 30.0 °F 22.4 °F 26.1 °F 85% 30.26 in 10.0 mi North 8.1 mph - N/A   Clear
8:53 PM 30.0 °F 21.7 °F 26.1 °F 85% 30.26 in 10.0 mi North 9.2 mph - N/A   Clear
9:53 PM 28.0 °F 20.0 °F 25.0 °F 88% 30.25 in 9.0 mi North 8.1 mph - N/A   Clear
10:53 PM 28.0 °F 20.0 °F 25.0 °F 88% 30.24 in 9.0 mi North 8.1 mph - N/A   Clear
11:53 PM 27.0 °F 19.5 °F 24.1 °F 89% 30.22 in 9.0 mi North 6.9 mph - N/A   Clear